Location: Complexul Astronomic Baia Mare
(47.6577°N, 23.5639°E)
Time: 06:53:31
(UTC+03:00)

ISS - Pass Details

Date: 29 May 2017
Orbit: 402 x 408 km, 51.6° (Epoch: 29 May)

Event Time Altitude Azimuth Distance (km) Brightness Sun altitude
Rises 01:51:19 0° 293° (WNW) 2,333 0.2 -20.4°
Reaches altitude 10° 01:53:24 10° 294° (WNW) 1,470 -0.8 -20.4°
Enters shadow 01:56:00 52° 294° (WNW) 510 -3.3 -20.3°
